Weather reports worldwide

Advertisment
Threave, United Kingdom (99090): temperature & dewpoint: 15.08.2017 11:00:00 - 21.08.2017 11:00:00 (BST)Threave, United Kingdom (99090): temperature -20cm & temperature -100cm: 15.08.2017 11:00:00 - 21.08.2017 11:00:00 (BST)Threave, United Kingdom (99090): visibility: 15.08.2017 11:00:00 - 21.08.2017 11:00:00 (BST)Threave, United Kingdom (99090): precipitation: 15.08.2017 11:00:00 - 21.08.2017 11:00:00 (BST)
Date & Time tt [°C] td [°C] tt -20cm [°C] tt -100cm [°C] vv [km] rr [mm]
21.08.2017 11:00:00 - - - - - 0,0
21.08.2017 10:00:00 13,7 10,5 15,7 14,7 - 0,0
21.08.2017 09:00:00 11,7 10,5 - - - 0,0
21.08.2017 08:00:00 9,4 9,2 - - - 0,0
21.08.2017 07:00:00 8,5 8,3 - - - 0,0
21.08.2017 06:00:00 7,4 7,1 - - - 0,0
21.08.2017 05:00:00 8,1 7,9 - - - 0,0
21.08.2017 04:00:00 7,9 7,7 - - - 0,0
21.08.2017 03:00:00 7,6 7,4 - - - 0,0
21.08.2017 02:00:00 7,4 7,1 - - - -
21.08.2017 01:00:00 7,8 7,5 - - - 0,0
21.08.2017 00:00:00 7,9 7,5 - - - 0,0
20.08.2017 23:00:00 8,3 7,9 - - - 0,0
20.08.2017 22:00:00 8,7 7,8 - - - 0,0
20.08.2017 21:00:00 10,2 8,8 - - - 0,0
20.08.2017 20:00:00 12,5 9,9 - - - 0,0
20.08.2017 19:00:00 14,5 8,6 - - - 0,0
20.08.2017 18:00:00 14,8 9,5 - - - 0,0
20.08.2017 17:00:00 15,1 7,6 - - - 0,0
20.08.2017 16:00:00 15,5 8,1 - - - 0,0
20.08.2017 15:00:00 16,1 8,8 - - - 0,0
20.08.2017 14:00:00 16,0 8,7 - - - 0,0
20.08.2017 13:00:00 15,7 10,1 - - - 0,0
20.08.2017 12:00:00 15,6 11,2 - - - 0,0
20.08.2017 11:00:00 15,0 11,0 - - - -
20.08.2017 10:00:00 14,6 11,2 15,9 14,7 - 0,0
20.08.2017 09:00:00 13,2 10,9 - - - 0,0
20.08.2017 08:00:00 11,6 10,2 - - - 0,0
20.08.2017 07:00:00 11,0 9,6 - - - 0,0
20.08.2017 06:00:00 11,2 9,0 - - - 0,0
20.08.2017 05:00:00 11,8 10,0 - - - 0,0
20.08.2017 04:00:00 11,2 9,4 - - - -
20.08.2017 03:00:00 11,9 9,8 - - - 0,0
20.08.2017 02:00:00 12,0 9,9 - - - 0,0
20.08.2017 01:00:00 12,2 9,9 - - - 0,0
20.08.2017 00:00:00 12,7 10,1 - - - 0,0
19.08.2017 23:00:00 12,9 10,1 - - - 0,0
19.08.2017 22:00:00 13,0 9,8 - - - 0,0
19.08.2017 21:00:00 13,3 9,7 - - - 0,0
19.08.2017 20:00:00 14,0 9,9 - - - 0,0
19.08.2017 19:00:00 14,4 10,0 - - - 0,0
19.08.2017 18:00:00 14,9 10,0 - - - 0,0
19.08.2017 17:00:00 15,2 9,4 - - - 0,0
19.08.2017 16:00:00 15,1 10,3 - - - 0,0
19.08.2017 15:00:00 14,4 9,8 - - - 0,2
19.08.2017 14:00:00 15,2 11,2 - - - 0,0
19.08.2017 13:00:00 16,3 10,6 - - - 0,0
19.08.2017 12:00:00 14,7 10,1 - - - 0,0
19.08.2017 11:00:00 13,8 10,6 - - - 0,0
19.08.2017 10:00:00 13,3 11,1 16,0 14,7 - 0,0
19.08.2017 09:00:00 12,0 9,6 - - - 0,6
19.08.2017 08:00:00 12,1 10,1 - - - 0,0
19.08.2017 07:00:00 11,9 9,8 - - - 0,0
19.08.2017 06:00:00 11,8 10,0 - - - 0,0
19.08.2017 05:00:00 11,8 10,3 - - - 0,0
19.08.2017 04:00:00 11,7 10,2 - - - 0,2
19.08.2017 03:00:00 11,9 10,1 - - - 0,0
19.08.2017 02:00:00 11,6 9,5 - - - 0,0
19.08.2017 01:00:00 11,7 9,3 - - - 0,0
19.08.2017 00:00:00 12,1 9,9 - - - 0,0
18.08.2017 23:00:00 12,4 10,7 - - - 0,4
18.08.2017 22:00:00 12,6 11,5 - - - 0,0
18.08.2017 21:00:00 12,1 10,3 - - - 0,0
18.08.2017 20:00:00 13,3 10,9 - - - 0,0
18.08.2017 19:00:00 13,4 10,9 - - - 0,2
18.08.2017 18:00:00 14,4 11,1 - - - 0,0
18.08.2017 17:00:00 14,7 11,3 - - - 0,8
18.08.2017 16:00:00 16,4 11,5 - - - 0,0
18.08.2017 15:00:00 14,6 10,0 - - - 0,0
18.08.2017 14:00:00 13,2 10,9 - - - 1,0
18.08.2017 13:00:00 16,5 10,8 - - - 0,0
18.08.2017 12:00:00 14,3 9,5 - - - 0,0
18.08.2017 11:00:00 13,9 9,9 - - - 0,0
18.08.2017 10:00:00 13,8 10,3 16,0 14,7 - 0,0
18.08.2017 09:00:00 12,9 10,3 - - - 0,0
18.08.2017 08:00:00 12,3 10,4 - - - 0,0
18.08.2017 07:00:00 11,9 10,0 - - - 0,0
18.08.2017 06:00:00 11,8 9,8 - - - 0,0
18.08.2017 05:00:00 12,1 9,9 - - - 0,0
18.08.2017 04:00:00 13,9 12,5 - - - 0,0
18.08.2017 03:00:00 14,1 13,0 - - - 0,2
18.08.2017 02:00:00 14,7 13,7 - - - 0,0
18.08.2017 01:00:00 14,7 13,6 - - - 0,2
18.08.2017 00:00:00 14,7 13,4 - - - 0,4
17.08.2017 23:00:00 15,1 13,9 - - - 0,0
17.08.2017 22:00:00 15,0 13,9 - - - 0,0
17.08.2017 21:00:00 15,0 13,9 - - - 0,0
17.08.2017 20:00:00 15,4 14,2 - - - 0,2
17.08.2017 19:00:00 16,4 14,3 - - - 0,0
17.08.2017 18:00:00 15,9 14,1 - - - 0,0
17.08.2017 17:00:00 16,2 13,7 - - - 0,0
17.08.2017 16:00:00 16,7 13,4 - - - 0,0
17.08.2017 15:00:00 16,5 12,8 - - - 0,0
17.08.2017 14:00:00 17,6 12,0 - - - 0,0
17.08.2017 13:00:00 17,8 11,7 - - - 0,0
17.08.2017 12:00:00 16,2 12,8 - - - 0,0
17.08.2017 11:00:00 16,0 12,3 - - - 0,0
17.08.2017 10:00:00 15,2 13,2 15,9 14,7 10 0,0
17.08.2017 09:00:00 13,9 13,3 - - - 0,0
17.08.2017 08:00:00 12,0 11,9 - - - 0,0
17.08.2017 07:00:00 11,3 11,1 - - - 0,0
17.08.2017 06:00:00 10,6 10,2 - - - 0,0
17.08.2017 05:00:00 12,3 11,9 - - - 0,0
17.08.2017 04:00:00 13,3 12,7 - - - 0,0
17.08.2017 03:00:00 14,7 14,2 - - - 0,0
17.08.2017 02:00:00 15,2 14,7 - - - 0,2
17.08.2017 01:00:00 15,4 15,0 - - - 0,2
17.08.2017 00:00:00 15,4 15,0 - - - 0,0
16.08.2017 23:00:00 15,2 14,9 - - - 0,6
16.08.2017 22:00:00 15,3 14,9 - - - 0,6
16.08.2017 21:00:00 15,2 14,8 - - - 2,4
16.08.2017 20:00:00 15,1 14,5 - - - 3,8
16.08.2017 19:00:00 15,0 14,2 - - - 0,4
16.08.2017 18:00:00 14,8 14,0 - - - 0,0
16.08.2017 17:00:00 14,4 13,8 - - - 1,8
16.08.2017 16:00:00 14,5 13,5 - - - 2,4
16.08.2017 15:00:00 14,5 13,5 - - - 1,4
16.08.2017 14:00:00 15,0 12,5 - - - 0,0
16.08.2017 13:00:00 15,3 12,2 - - - 0,0
16.08.2017 12:00:00 15,1 12,2 - - - 0,0
16.08.2017 11:00:00 15,3 11,9 - - - 0,0
16.08.2017 10:00:00 15,3 12,0 16,2 14,9 5 0,0
16.08.2017 09:00:00 14,6 12,3 - - - 0,0
16.08.2017 08:00:00 13,8 12,7 - - - 0,0
16.08.2017 07:00:00 13,4 13,3 - - - 0,0
16.08.2017 06:00:00 10,2 10,1 - - - 0,0
16.08.2017 05:00:00 9,9 9,7 - - - 0,0
16.08.2017 04:00:00 9,6 9,5 - - - 0,0
16.08.2017 03:00:00 9,6 9,3 - - - 0,0
16.08.2017 02:00:00 10,1 9,7 - - - 0,0
16.08.2017 01:00:00 12,0 11,8 - - - 0,0
16.08.2017 00:00:00 10,7 10,3 - - - 0,0
15.08.2017 23:00:00 10,9 10,0 - - - 0,0
15.08.2017 22:00:00 12,6 11,5 - - - 0,0
15.08.2017 21:00:00 13,6 11,7 - - - 0,0
15.08.2017 20:00:00 14,9 12,4 - - - 0,0
15.08.2017 19:00:00 15,6 11,7 - - - 0,0
15.08.2017 18:00:00 15,6 12,6 - - - 0,0
15.08.2017 17:00:00 15,9 11,3 - - - 0,0
15.08.2017 16:00:00 17,2 12,0 - - - 0,0
15.08.2017 15:00:00 16,7 11,8 - - - 0,0
15.08.2017 14:00:00 17,4 12,4 - - - 0,0
15.08.2017 13:00:00 17,0 11,5 - - - 0,0
15.08.2017 12:00:00 17,3 13,2 - - - 0,0
15.08.2017 11:00:00 16,8 12,8 - - - 0,0

tt = temperature
td = dewpoint
tt -20cm = temperature -20cm
tt -100cm = temperature -100cm
vv = visibility
rr = precipitation

Next stations